Weather in Rzhevskoye

Russia / Kaliningrad Oblast     55°04′56″N   21°44′53″E
temp.,
°C
wind,
m/s
gust,
m/s
humid.,
%
clouds,
%
prec.,
mm/h
press.,
hPa
HPBL,
m
9 may, sun
sun923:00+2wsw22935 0.0 101813
02:00+1sw22955 0.0 101936
05:00+1s3395100 0.0 102060
08:00+6s467580 0.0 1020314
11:00+11s685989 0.0 10191166
14:00+13s6958100 0.0 10181656
17:00+11sse51269100 0.0 1017612
20:00+11sse5137877 0.0 1017390
10 may, mon
mon1023:00+11sse5148090 0.0 1017351
02:00+10sse515815 0.0 1017373
05:00+8sse514885 0.0 1017286
08:00+13sse612785 0.0 1018426
11:00+18sse710655 0.0 1017724
14:00+21sse710625 0.0 10171055
17:00+20sse712675 0.0 1017979
20:00+16sse61573100 0.0 1017569
11 may, tue
tue1123:00+14se61476100 0.0 1018459
02:00+13se61479100 0.0 1018417
05:00+12se5148147 0.0 1018405
08:00+15se7157566 0.0 1018568
11:00+19se81362100 0.0 1018975
14:00+21se8126020 0.0 10171220
17:00+20se8126318 0.0 10161090
20:00+15se715650 0.0 1016613
12 may, wed
wed1223:00+11ese515760 0.0 1017400
02:00+11ese515790 0.0 1016416
05:00+11ese514860 0.0 1016329
08:00+15ese714800 0.0 1016556
11:00+19ese812650 0.0 10151202
14:00+20ese711555 0.0 10141378
17:00+19ese610610 0.0 10131337
20:00+14ese5117396 0.0 1013344
13 may, thu
thu1323:00+13ese4963100 0.0 1012375
02:00+10ese3880100 0.0 1011250
05:00+7ese35935 0.0 1011103
08:00+12e3475100 0.0 1009322
11:00+15ese346494 0.3 10081257
14:00+15ese4474100 3.1 1008808
17:00+15e3475100 2.4 1007802
20:00+12e348991 3.9 100779